"SCLK","SCET","ORBIT_NUMBER","ALTITUDE","LATITUDE_PLANEOGRAPHIC","LATITUDE_PLANETOCENTRIC","LOCAL_TRUE_SOLAR_TIME","WEST_LONGITUDE","X_SUN_DIR_DISTANCE","RHO_PRP_SUN_DISTANCE","SOLAR_ZENITH_ANGLE","ELECTRON_PLASMA_FREQUENCY","FPE_QUALITY","FPP_VERIFICATION","ELECTRON_PLASMA_DENSITY","ELECTRON_CYCLOTRON_PERIOD","FCP_QUALITY","B_MAGNITUDE"
"1/0364464285.28669",2014-11-19T08:04:49.338,13814,1567.00,47.34,47.07,"09:30:13",330.72,-1.080,0.980,137.84,1.40e+02,2,,2.43e+02,3.90e+00,1,9.15e+00
"1/0364464292.64255",2014-11-19T08:04:56.881,13814,1556.00,47.62,47.35,"09:32:38",330.71,-1.080,0.980,137.70,1.47e+02,2,,2.68e+02,3.84e+00,1,9.30e+00
"1/0364464300.34305",2014-11-19T08:05:04.424,13814,1545.00,47.90,47.63,"09:32:45",330.71,-1.070,0.980,137.56,1.61e+02,2,,3.21e+02,3.74e+00,1,9.54e+00
"1/0364464308.04355",2014-11-19T08:05:11.967,13814,1535.00,48.18,47.92,"09:32:53",330.71,-1.070,0.980,137.42,1.73e+02,2,,3.71e+02,3.71e+00,1,9.64e+00
"1/0364464315.40006",2014-11-19T08:05:19.511,13814,1524.00,48.47,48.20,"09:35:17",330.70,-1.060,0.980,137.27,1.68e+02,2,,3.50e+02,3.74e+00,1,9.54e+00
"1/0364464323.10056",2014-11-19T08:05:27.054,13814,1513.00,48.75,48.49,"09:35:25",330.70,-1.060,0.980,137.13,1.57e+02,2,,3.06e+02,3.48e+00,1,1.03e+01
"1/0364464330.45642",2014-11-19T08:05:34.597,13814,1502.00,49.04,48.77,"09:35:32",330.70,-1.050,0.980,136.98,1.68e+02,2,,3.50e+02,3.43e+00,1,1.04e+01
"1/0364464338.15692",2014-11-19T08:05:42.140,13814,1492.00,49.33,49.06,"09:37:57",330.69,-1.050,0.980,136.83,1.73e+02,2,,3.71e+02,3.17e+00,1,1.13e+01
"1/0364464345.51278",2014-11-19T08:05:49.683,13814,1481.00,49.62,49.35,"09:40:22",330.68,-1.040,0.980,136.68,1.75e+02,2,,3.80e+02,3.22e+00,1,1.11e+01
"1/0364464353.21394",2014-11-19T08:05:57.227,13814,1470.00,49.91,49.64,"09:40:29",330.68,-1.040,0.980,136.53,1.75e+02,2,,3.80e+02,3.28e+00,1,1.09e+01
"1/0364464360.56980",2014-11-19T08:06:04.770,13814,1460.00,50.20,49.93,"09:42:54",330.67,-1.030,0.980,136.38,1.78e+02,2,,3.93e+02,,,
"1/0364464368.27030",2014-11-19T08:06:12.313,13814,1449.00,50.49,50.22,"09:45:19",330.66,-1.030,0.980,136.22,1.78e+02,2,,3.93e+02,3.82e+00,1,9.36e+00
"1/0364464375.62616",2014-11-19T08:06:19.856,13814,1438.00,50.79,50.52,"09:47:44",330.65,-1.020,0.980,136.06,1.72e+02,2,,3.67e+02,3.89e+00,1,9.18e+00
"1/0364464383.32666",2014-11-19T08:06:27.399,13814,1428.00,51.08,50.81,"09:50:08",330.64,-1.020,0.980,135.90,1.68e+02,2,,3.50e+02,4.02e+00,1,8.89e+00
"1/0364464391.02782",2014-11-19T08:06:34.943,13814,1417.00,51.38,51.11,"09:50:16",330.64,-1.010,0.980,135.74,1.69e+02,2,,3.54e+02,4.11e+00,1,8.70e+00
"1/0364464398.38368",2014-11-19T08:06:42.486,13814,1407.00,51.68,51.41,"09:54:58",330.62,-1.010,0.980,135.58,1.70e+02,2,,3.58e+02,4.21e+00,1,8.49e+00
"1/0364464406.08418",2014-11-19T08:06:50.029,13814,1396.00,51.98,51.71,"09:57:23",330.61,-1.000,0.990,135.41,1.76e+02,2,,3.84e+02,4.36e+00,1,8.20e+00
"1/0364464413.44004",2014-11-19T08:06:57.572,13814,1386.00,52.28,52.01,"09:59:48",330.60,-1.000,0.990,135.25,1.72e+02,2,,3.67e+02,4.42e+00,1,8.08e+00
"1/0364464421.14054",2014-11-19T08:07:05.115,13814,1375.00,52.58,52.31,"10:02:13",330.59,-0.990,0.990,135.08,1.71e+02,2,,3.63e+02,,,
"1/0364464428.49705",2014-11-19T08:07:12.659,13814,1365.00,52.88,52.62,"10:06:55",330.57,-0.990,0.990,134.91,1.72e+02,2,,3.67e+02,,,
"1/0364464436.19755",2014-11-19T08:07:20.202,13814,1355.00,53.19,52.92,"10:09:20",330.56,-0.980,0.990,134.73,1.66e+02,2,,3.42e+02,,,
"1/0364464443.55341",2014-11-19T08:07:27.745,13814,1344.00,53.49,53.23,"10:11:45",330.55,-0.980,0.990,134.56,1.61e+02,2,,3.21e+02,4.69e+00,1,7.61e+00
"1/0364464451.25391",2014-11-19T08:07:35.288,13814,1334.00,53.80,53.53,"10:16:27",330.53,-0.970,0.990,134.38,1.67e+02,2,,3.46e+02,,,
"1/0364464458.61043",2014-11-19T08:07:42.832,13814,1324.00,54.11,53.84,"10:21:09",330.51,-0.970,0.990,134.21,1.69e+02,2,,3.54e+02,,,
"1/0364464466.31093",2014-11-19T08:07:50.375,13814,1313.00,54.42,54.15,"10:25:52",330.49,-0.960,0.990,134.03,1.68e+02,2,,3.50e+02,,,
"1/0364464474.01143",2014-11-19T08:07:57.918,13814,1303.00,54.73,54.46,"10:28:17",330.48,-0.960,0.990,133.84,1.58e+02,2,,3.10e+02,,,
"1/0364464481.36729",2014-11-19T08:08:05.461,13814,1293.00,55.04,54.78,"10:32:59",330.46,-0.950,0.990,133.66,1.62e+02,2,,3.25e+02,3.84e+00,1,9.30e+00
"1/0364464489.06779",2014-11-19T08:08:13.004,13814,1283.00,55.36,55.09,"10:39:59",330.43,-0.950,0.990,133.48,1.67e+02,2,,3.46e+02,,,
"1/0364464496.42431",2014-11-19T08:08:20.548,13814,1273.00,55.67,55.41,"10:44:41",330.41,-0.940,1.000,133.29,1.76e+02,2,,3.84e+02,3.89e+00,1,9.18e+00
"1/0364464504.12481",2014-11-19T08:08:28.091,13814,1263.00,55.99,55.72,"10:49:24",330.39,-0.940,1.000,133.10,1.83e+02,2,,4.15e+02,,,
"1/0364464511.48067",2014-11-19T08:08:35.634,13814,1252.00,56.31,56.04,"10:54:06",330.37,-0.930,1.000,132.91,1.87e+02,2,,4.34e+02,,,
"1/0364464519.18117",2014-11-19T08:08:43.177,13814,1242.00,56.62,56.36,"11:01:06",330.34,-0.930,1.000,132.72,1.94e+02,2,,4.67e+02,,,
"1/0364464526.53703",2014-11-19T08:08:50.720,13814,1232.00,56.94,56.68,"11:08:06",330.31,-0.920,1.000,132.52,1.85e+02,2,,4.24e+02,,,
"1/0364464534.23818",2014-11-19T08:08:58.264,13814,1222.00,57.27,57.00,"11:12:48",330.29,-0.910,1.000,132.32,1.84e+02,2,,4.20e+02,,,
"1/0364464541.59404",2014-11-19T08:09:05.807,13814,1212.00,57.59,57.33,"11:19:48",330.26,-0.910,1.000,132.13,1.87e+02,2,,4.34e+02,,,
"1/0364464549.29454",2014-11-19T08:09:13.350,13814,1202.00,57.91,57.65,"11:26:48",330.23,-0.900,1.000,131.92,1.86e+02,2,,4.29e+02,,,
"1/0364464556.65040",2014-11-19T08:09:20.893,13814,1193.00,58.24,57.98,"11:33:48",330.20,-0.900,1.000,131.72,1.89e+02,2,,4.43e+02,4.00e+00,1,8.92e+00
"1/0364464564.35091",2014-11-19T08:09:28.436,13814,1183.00,58.57,58.31,"11:43:05",330.16,-0.890,1.000,131.52,1.88e+02,2,,4.38e+02,,,
"1/0364464572.05206",2014-11-19T08:09:35.980,13814,1173.00,58.90,58.64,"11:50:05",330.13,-0.890,1.000,131.31,1.91e+02,2,,4.52e+02,,,
"1/0364464579.40792",2014-11-19T08:09:43.523,13814,1163.00,59.23,58.97,"11:59:22",330.09,-0.880,1.010,131.10,1.88e+02,2,,4.38e+02,,,
"1/0364464587.10842",2014-11-19T08:09:51.066,13814,1153.00,59.56,59.30,"12:08:40",330.05,-0.880,1.010,130.89,1.85e+02,2,,4.24e+02,,,
"1/0364464594.46428",2014-11-19T08:09:58.609,13814,1144.00,59.89,59.63,"12:17:57",330.01,-0.870,1.010,130.68,1.94e+02,2,,4.67e+02,,,
"1/0364464602.16478",2014-11-19T08:10:06.152,13814,1134.00,60.22,59.97,"12:27:14",329.97,-0.860,1.010,130.47,1.93e+02,2,,4.62e+02,,,
"1/0364464609.52130",2014-11-19T08:10:13.696,13814,1124.00,60.56,60.31,"12:36:32",329.93,-0.860,1.010,130.25,2.03e+02,2,,5.11e+02,,,
"1/0364464617.22180",2014-11-19T08:10:21.239,13814,1115.00,60.89,60.64,"12:45:49",329.89,-0.850,1.010,130.03,2.02e+02,2,,5.06e+02,,,
"1/0364464624.57766",2014-11-19T08:10:28.782,13814,1105.00,61.23,60.98,"12:57:24",329.84,-0.850,1.010,129.82,1.91e+02,2,,4.52e+02,,,
"1/0364464632.27816",2014-11-19T08:10:36.325,13814,1096.00,61.57,61.32,"13:08:59",329.79,-0.840,1.010,129.59,1.80e+02,2,,4.02e+02,3.27e+00,1,1.09e+01
"1/0364464639.63402",2014-11-19T08:10:43.868,13814,1086.00,61.91,61.67,"13:20:34",329.74,-0.840,1.010,129.37,1.68e+02,2,,3.50e+02,3.17e+00,1,1.13e+01
"1/0364464647.33517",2014-11-19T08:10:51.412,13814,1077.00,62.25,62.01,"13:32:09",329.69,-0.830,1.020,129.15,1.70e+02,2,,3.58e+02,3.30e+00,2,1.08e+01
"1/0364464655.03567",2014-11-19T08:10:58.955,13814,1067.00,62.60,62.35,"13:46:01",329.63,-0.820,1.020,128.92,1.75e+02,2,,3.80e+02,3.37e+00,1,1.06e+01
"1/0364464662.39153",2014-11-19T08:11:06.498,13814,1058.00,62.94,62.70,"13:59:54",329.57,-0.820,1.020,128.69,1.66e+02,2,,3.42e+02,3.39e+00,1,1.05e+01
"1/0364464670.09203",2014-11-19T08:11:14.041,13814,1048.00,63.29,63.05,"14:13:46",329.51,-0.810,1.020,128.46,1.71e+02,2,,3.63e+02,3.47e+00,1,1.03e+01
"1/0364464677.44790",2014-11-19T08:11:21.584,13814,1039.00,63.64,63.40,"14:27:38",329.45,-0.810,1.020,128.23,1.70e+02,2,,3.58e+02,3.52e+00,2,1.02e+01
"1/0364464685.14905",2014-11-19T08:11:29.128,13814,1030.00,63.99,63.75,"14:43:48",329.38,-0.800,1.020,127.99,1.62e+02,2,,3.25e+02,,,
"1/0364464692.50491",2014-11-19T08:11:36.671,13814,1021.00,64.34,64.10,"14:57:41",329.32,-0.800,1.020,127.75,1.56e+02,2,,3.02e+02,,,
"1/0364464700.20541",2014-11-19T08:11:44.214,13814,1012.00,64.69,64.45,"15:13:51",329.25,-0.790,1.020,127.52,1.56e+02,2,,3.02e+02,3.12e+00,1,1.14e+01
"1/0364464707.56127",2014-11-19T08:11:51.757,13814,1002.00,65.04,64.81,"15:32:18",329.17,-0.780,1.020,127.28,1.68e+02,2,,3.50e+02,2.60e+00,2,1.38e+01
"1/0364464715.26177",2014-11-19T08:11:59.300,13814,993.00,65.40,65.17,"15:50:45",329.09,-0.780,1.030,127.03,1.65e+02,2,,3.38e+02,2.64e+00,2,1.35e+01
"1/0364464722.61829",2014-11-19T08:12:06.844,13814,984.00,65.75,65.52,"16:09:13",329.01,-0.770,1.030,126.79,1.60e+02,2,,3.17e+02,2.63e+00,2,1.36e+01
"1/0364464730.31879",2014-11-19T08:12:14.387,13814,975.00,66.11,65.88,"16:27:40",328.93,-0.770,1.030,126.54,1.52e+02,2,,2.87e+02,2.75e+00,2,1.30e+01
"1/0364464738.01929",2014-11-19T08:12:21.930,13814,966.00,66.47,66.24,"16:48:25",328.84,-0.760,1.030,126.30,1.58e+02,2,,3.10e+02,2.79e+00,2,1.28e+01
"1/0364464745.37515",2014-11-19T08:12:29.473,13814,958.00,66.83,66.60,"17:09:10",328.75,-0.750,1.030,126.05,1.53e+02,2,,2.90e+02,2.76e+00,2,1.29e+01
"1/0364464753.07565",2014-11-19T08:12:37.016,13814,949.00,67.19,66.97,"17:32:13",328.65,-0.750,1.030,125.79,1.55e+02,2,,2.98e+02,2.75e+00,1,1.30e+01
"1/0364464760.43216",2014-11-19T08:12:44.560,13814,940.00,67.55,67.33,"17:55:15",328.55,-0.740,1.030,125.54,1.56e+02,2,,3.02e+02,2.85e+00,1,1.25e+01
"1/0364464768.13266",2014-11-19T08:12:52.103,13814,931.00,67.91,67.70,"18:20:35",328.44,-0.730,1.030,125.28,1.50e+02,2,,2.79e+02,2.84e+00,1,1.26e+01
"1/0364464775.48852",2014-11-19T08:12:59.646,13814,922.00,68.28,68.07,"18:45:55",328.33,-0.730,1.030,125.03,1.45e+02,2,,2.61e+02,2.84e+00,1,1.26e+01
"1/0364464783.18903",2014-11-19T08:13:07.189,13814,914.00,68.65,68.44,"19:11:15",328.22,-0.720,1.040,124.77,1.47e+02,2,,2.68e+02,2.88e+00,2,1.24e+01
"1/0364464790.54489",2014-11-19T08:13:14.732,13814,905.00,69.01,68.81,"19:38:52",328.10,-0.720,1.040,124.51,1.51e+02,2,,2.83e+02,2.82e+00,2,1.27e+01
"1/0364464798.24604",2014-11-19T08:13:22.276,13814,897.00,69.38,69.18,"20:08:47",327.97,-0.710,1.040,124.24,1.50e+02,2,,2.79e+02,2.81e+00,2,1.27e+01
"1/0364464805.60190",2014-11-19T08:13:29.819,13814,888.00,69.75,69.55,"20:38:42",327.84,-0.700,1.040,123.98,1.50e+02,2,,2.79e+02,2.73e+00,1,1.31e+01
"1/0364464813.30240",2014-11-19T08:13:37.362,13814,880.00,70.12,69.92,"21:10:55",327.70,-0.700,1.040,123.71,1.35e+02,2,,2.26e+02,2.75e+00,1,1.30e+01
"1/0364464821.00290",2014-11-19T08:13:44.905,13814,871.00,70.50,70.30,"21:45:25",327.55,-0.690,1.040,123.44,1.35e+02,2,,2.26e+02,2.73e+00,2,1.31e+01
"1/0364464828.35876",2014-11-19T08:13:52.448,13814,863.00,70.87,70.68,"22:19:55",327.40,-0.680,1.040,123.17,1.41e+02,2,,2.47e+02,2.61e+00,2,1.37e+01
"1/0364464836.05992",2014-11-19T08:13:59.992,13814,855.00,71.25,71.06,"22:59:00",327.23,-0.680,1.040,122.90,1.39e+02,2,,2.40e+02,2.60e+00,2,1.37e+01
"1/0364464843.41578",2014-11-19T08:14:07.535,13814,846.00,71.62,71.43,"23:38:05",327.06,-0.670,1.050,122.63,1.41e+02,2,,2.47e+02,2.60e+00,2,1.37e+01
"1/0364464851.11628",2014-11-19T08:14:15.078,13814,838.00,72.00,71.82,"00:19:27",326.88,-0.670,1.050,122.35,1.35e+02,2,,2.26e+02,2.60e+00,2,1.37e+01
"1/0364464858.47214",2014-11-19T08:14:22.621,13814,830.00,72.38,72.20,"01:00:50",326.70,-0.660,1.050,122.07,1.32e+02,2,,2.16e+02,2.64e+00,1,1.35e+01
"1/0364464866.17264",2014-11-19T08:14:30.164,13814,822.00,72.76,72.58,"01:46:47",326.50,-0.650,1.050,121.79,1.35e+02,2,,2.26e+02,2.56e+00,1,1.40e+01
"1/0364464873.52915",2014-11-19T08:14:37.708,13814,814.00,73.14,72.97,"02:35:02",326.29,-0.650,1.050,121.51,1.35e+02,2,,2.26e+02,2.48e+00,2,1.44e+01
"1/0364464881.22965",2014-11-19T08:14:45.251,13814,806.00,73.52,73.35,"03:25:35",326.07,-0.640,1.050,121.23,1.25e+02,2,,1.94e+02,2.49e+00,1,1.43e+01
"1/0364464888.58552",2014-11-19T08:14:52.794,13814,798.00,73.91,73.74,"04:20:42",325.83,-0.630,1.050,120.94,1.17e+02,2,,1.70e+02,2.43e+00,2,1.47e+01
"1/0364464896.28602",2014-11-19T08:15:00.337,13814,790.00,74.29,74.13,"05:18:08",325.58,-0.630,1.050,120.66,1.18e+02,2,,1.73e+02,2.44e+00,2,1.46e+01
"1/0364464903.64188",2014-11-19T08:15:07.880,13814,782.00,74.68,74.52,"06:17:50",325.32,-0.620,1.060,120.37,1.17e+02,2,,1.70e+02,2.48e+00,2,1.44e+01
"1/0364464911.34303",2014-11-19T08:15:15.424,13814,775.00,75.07,74.91,"07:22:08",325.04,-0.610,1.060,120.08,1.20e+02,2,,1.79e+02,2.42e+00,2,1.47e+01
"1/0364464919.04353",2014-11-19T08:15:22.967,13814,767.00,75.45,75.30,"08:28:43",324.75,-0.610,1.060,119.78,1.20e+02,2,,1.79e+02,2.39e+00,2,1.49e+01
"1/0364464926.39939",2014-11-19T08:15:30.510,13814,759.00,75.84,75.69,"09:42:10",324.43,-0.600,1.060,119.49,1.20e+02,2,,1.79e+02,2.28e+00,2,1.57e+01
"1/0364464934.09989",2014-11-19T08:15:38.053,13814,752.00,76.23,76.08,"10:57:56",324.10,-0.590,1.060,119.20,1.16e+02,2,,1.67e+02,2.29e+00,2,1.56e+01
"1/0364464941.45575",2014-11-19T08:15:45.596,13814,744.00,76.62,76.48,"12:20:33",323.74,-0.590,1.060,118.90,1.16e+02,2,,1.67e+02,2.30e+00,2,1.55e+01
"1/0364464949.15691",2014-11-19T08:15:53.140,13814,737.00,77.01,76.87,"13:47:46",323.36,-0.580,1.060,118.60,1.21e+02,2,,1.82e+02,2.25e+00,2,1.59e+01
"1/0364464956.51277",2014-11-19T08:16:00.683,13814,729.00,77.40,77.27,"15:21:51",322.95,-0.570,1.060,118.30,1.26e+02,2,,1.97e+02,2.16e+00,2,1.65e+01
"1/0364464964.21327",2014-11-19T08:16:08.226,13814,722.00,77.80,77.66,"17:02:49",322.51,-0.570,1.060,117.99,,,,,2.21e+00,1,1.61e+01
"1/0364464971.56913",2014-11-19T08:16:15.769,13814,715.00,78.19,78.06,"18:50:39",322.04,-0.560,1.070,117.69,1.28e+02,2,,2.03e+02,2.07e+00,2,1.72e+01
"1/0364464979.27028",2014-11-19T08:16:23.313,13814,708.00,78.58,78.46,"20:45:22",321.54,-0.550,1.070,117.38,1.19e+02,2,,1.76e+02,2.12e+00,2,1.69e+01
"1/0364464986.62614",2014-11-19T08:16:30.856,13814,701.00,78.98,78.85,"22:51:33",320.99,-0.550,1.070,117.08,1.11e+02,2,,1.53e+02,2.12e+00,2,1.69e+01
"1/0364464994.32665",2014-11-19T08:16:38.399,13814,693.00,79.37,79.25,"01:06:53",320.40,-0.540,1.070,116.77,1.13e+02,2,,1.58e+02,2.11e+00,2,1.70e+01
"1/0364465002.02715",2014-11-19T08:16:45.942,13814,686.00,79.76,79.65,"03:33:41",319.76,-0.530,1.070,116.45,1.16e+02,2,,1.67e+02,2.17e+00,2,1.65e+01
"1/0364465009.38301",2014-11-19T08:16:53.485,13814,680.00,80.16,80.05,"06:11:57",319.07,-0.530,1.070,116.14,1.14e+02,2,,1.61e+02,2.24e+00,2,1.59e+01
"1/0364465017.08416",2014-11-19T08:17:01.029,13814,673.00,80.55,80.44,"09:06:15",318.31,-0.520,1.070,115.83,1.11e+02,2,,1.53e+02,2.30e+00,2,1.55e+01
"1/0364465024.44002",2014-11-19T08:17:08.572,13814,666.00,80.94,80.84,"12:14:18",317.49,-0.510,1.070,115.51,1.09e+02,2,,1.47e+02,2.32e+00,2,1.54e+01
"1/0364465032.14052",2014-11-19T08:17:16.115,13814,659.00,81.34,81.24,"15:42:58",316.58,-0.510,1.070,115.19,1.11e+02,2,,1.53e+02,2.34e+00,2,1.53e+01
"1/0364465039.49638",2014-11-19T08:17:23.658,13814,652.00,81.73,81.63,"19:32:17",315.58,-0.500,1.080,114.87,1.12e+02,2,,1.56e+02,2.37e+00,2,1.50e+01
"1/0364465047.19688",2014-11-19T08:17:31.201,13814,646.00,82.12,82.02,"23:46:48",314.47,-0.490,1.080,114.55,1.17e+02,2,,1.70e+02,2.37e+00,2,1.51e+01
"1/0364465054.55340",2014-11-19T08:17:38.745,13814,639.00,82.50,82.42,"04:26:31",313.25,-0.490,1.080,114.23,1.20e+02,2,,1.79e+02,2.47e+00,1,1.44e+01
"1/0364465062.25390",2014-11-19T08:17:46.288,13814,633.00,82.89,82.80,"09:38:20",311.89,-0.480,1.080,113.90,1.29e+02,2,,2.06e+02,2.59e+00,1,1.38e+01
"1/0364465069.60976",2014-11-19T08:17:53.831,13814,627.00,83.27,83.19,"15:29:06",310.36,-0.470,1.080,113.58,1.37e+02,2,,2.33e+02,2.48e+00,2,1.44e+01
"1/0364465077.31026",2014-11-19T08:18:01.374,13814,620.00,83.64,83.57,"22:03:25",308.64,-0.460,1.080,113.25,1.39e+02,2,,2.40e+02,2.50e+00,2,1.43e+01
"1/0364465085.01076",2014-11-19T08:18:08.917,13814,614.00,84.01,83.94,"05:28:10",306.70,-0.460,1.080,112.92,1.43e+02,2,,2.54e+02,2.55e+00,2,1.40e+01
"1/0364465092.36727",2014-11-19T08:18:16.461,13814,608.00,84.38,84.31,"13:52:29",304.50,-0.450,1.080,112.59,1.42e+02,2,,2.50e+02,2.60e+00,2,1.37e+01
"1/0364465100.06777",2014-11-19T08:18:24.004,13814,602.00,84.73,84.67,"23:30:09",301.98,-0.440,1.080,112.26,1.36e+02,2,,2.29e+02,2.68e+00,1,1.33e+01
"1/0364465107.42364",2014-11-19T08:18:31.547,13814,596.00,85.08,85.02,"10:30:19",299.10,-0.440,1.080,111.92,1.32e+02,2,,2.16e+02,2.62e+00,2,1.37e+01
"1/0364465115.12414",2014-11-19T08:18:39.090,13814,590.00,85.41,85.35,"23:13:37",295.77,-0.430,1.080,111.59,1.27e+02,2,,2.00e+02,2.69e+00,2,1.33e+01
"1/0364465122.48000",2014-11-19T08:18:46.633,13814,584.00,85.72,85.67,"13:53:48",291.93,-0.420,1.090,111.25,1.23e+02,2,,1.88e+02,2.93e+00,1,1.22e+01
"1/0364465130.18115",2014-11-19T08:18:54.177,13814,578.00,86.02,85.97,"06:51:30",287.49,-0.420,1.090,110.91,1.10e+02,2,,1.50e+02,3.04e+00,2,1.18e+01
"1/0364465137.53701",2014-11-19T08:19:01.720,13814,572.00,86.28,86.23,"02:27:20",282.36,-0.410,1.090,110.57,1.13e+02,2,,1.58e+02,3.22e+00,1,1.11e+01
"1/0364465145.23751",2014-11-19T08:19:09.263,13814,567.00,86.51,86.47,"00:55:03",276.48,-0.400,1.090,110.23,1.15e+02,2,,1.64e+02,3.30e+00,1,1.08e+01
"1/0364465152.59337",2014-11-19T08:19:16.806,13814,561.00,86.70,86.66,"02:19:15",269.83,-0.390,1.090,109.89,1.15e+02,2,,1.64e+02,3.39e+00,1,1.05e+01
"1/0364465160.29387",2014-11-19T08:19:24.349,13814,556.00,86.84,86.80,"06:28:27",262.46,-0.390,1.090,109.54,1.13e+02,2,,1.58e+02,,,
"1/0364465167.65039",2014-11-19T08:19:31.893,13814,550.00,86.92,86.88,"12:48:17",254.52,-0.380,1.090,109.20,1.16e+02,2,,1.67e+02,3.18e+00,1,1.12e+01
"1/0364465175.35089",2014-11-19T08:19:39.436,13814,545.00,86.95,86.91,"20:14:35",246.29,-0.370,1.090,108.85,1.11e+02,2,,1.53e+02,,,
"1/0364465183.05139",2014-11-19T08:19:46.979,13814,540.00,86.90,86.86,"03:34:00",238.09,-0.370,1.090,108.50,1.09e+02,2,,1.47e+02,,,
"1/0364465190.40725",2014-11-19T08:19:54.522,13814,534.00,86.80,86.76,"09:30:55",230.25,-0.360,1.090,108.15,1.15e+02,2,,1.64e+02,3.19e+00,1,1.12e+01
"1/0364465198.10775",2014-11-19T08:20:02.065,13814,529.00,86.64,86.59,"13:10:20",223.01,-0.350,1.090,107.80,1.18e+02,2,,1.73e+02,,,
"1/0364465205.46426",2014-11-19T08:20:09.609,13814,524.00,86.43,86.38,"14:00:09",216.51,-0.340,1.100,107.45,1.33e+02,2,,2.19e+02,3.30e+00,1,1.08e+01
"1/0364465213.16477",2014-11-19T08:20:17.152,13814,519.00,86.18,86.13,"11:51:12",210.79,-0.340,1.100,107.10,1.37e+02,2,,2.33e+02,3.25e+00,1,1.10e+01
"1/0364465220.52063",2014-11-19T08:20:24.695,13814,514.00,85.89,85.84,"06:52:39",205.81,-0.330,1.100,106.74,1.31e+02,2,,2.13e+02,3.12e+00,1,1.15e+01
"1/0364465228.22113",2014-11-19T08:20:32.238,13814,510.00,85.58,85.52,"23:22:50",201.49,-0.320,1.100,106.38,1.37e+02,2,,2.33e+02,3.02e+00,1,1.18e+01
"1/0364465235.57699",2014-11-19T08:20:39.781,13814,505.00,85.24,85.18,"13:37:49",197.76,-0.310,1.100,106.03,1.40e+02,2,,2.43e+02,,,
"1/0364465243.27814",2014-11-19T08:20:47.325,13814,500.00,84.89,84.82,"01:58:12",194.53,-0.310,1.100,105.67,1.33e+02,2,,2.19e+02,2.72e+00,1,1.31e+01
"1/0364465250.63400",2014-11-19T08:20:54.868,13814,496.00,84.52,84.45,"12:40:02",191.73,-0.300,1.100,105.31,1.38e+02,2,,2.36e+02,2.61e+00,2,1.37e+01
"1/0364465258.33450",2014-11-19T08:21:02.411,13814,491.00,84.13,84.06,"22:01:39",189.28,-0.290,1.100,104.95,1.41e+02,2,,2.47e+02,2.57e+00,2,1.39e+01
"1/0364465266.03500",2014-11-19T08:21:09.954,13814,487.00,83.74,83.66,"06:14:31",187.13,-0.280,1.100,104.58,1.47e+02,2,,2.68e+02,2.48e+00,1,1.44e+01
"1/0364465273.39086",2014-11-19T08:21:17.497,13814,483.00,83.34,83.26,"13:27:48",185.24,-0.280,1.100,104.22,1.47e+02,2,,2.68e+02,2.36e+00,2,1.51e+01
"1/0364465281.09202",2014-11-19T08:21:25.041,13814,479.00,82.93,82.84,"19:52:57",183.56,-0.270,1.100,103.86,1.52e+02,2,,2.87e+02,2.27e+00,2,1.57e+01
"1/0364465288.44788",2014-11-19T08:21:32.584,13814,474.00,82.51,82.42,"01:34:33",182.07,-0.260,1.100,103.49,1.66e+02,2,,3.42e+02,2.02e+00,2,1.77e+01
"1/0364465296.14838",2014-11-19T08:21:40.127,13814,470.00,82.09,82.00,"06:39:29",180.74,-0.260,1.100,103.12,1.76e+02,2,,3.84e+02,1.93e+00,2,1.85e+01
"1/0364465303.50424",2014-11-19T08:21:47.670,13814,466.00,81.67,81.57,"11:14:38",179.54,-0.250,1.100,102.76,1.92e+02,2,,4.57e+02,1.90e+00,2,1.88e+01
"1/0364465311.20474",2014-11-19T08:21:55.213,13814,463.00,81.24,81.13,"15:24:34",178.45,-0.240,1.100,102.39,1.95e+02,2,,4.72e+02,1.94e+00,2,1.84e+01
"1/0364465318.56126",2014-11-19T08:22:02.757,13814,459.00,80.80,80.69,"19:09:17",177.47,-0.230,1.100,102.02,1.87e+02,2,,4.34e+02,1.89e+00,2,1.89e+01
"1/0364465326.26176",2014-11-19T08:22:10.300,13814,455.00,80.36,80.25,"22:33:23",176.58,-0.230,1.100,101.65,1.75e+02,2,,3.80e+02,1.81e+00,2,1.98e+01
"1/0364465333.61762",2014-11-19T08:22:17.843,13814,452.00,79.92,79.80,"01:39:09",175.77,-0.220,1.110,101.27,1.82e+02,2,,4.11e+02,1.79e+00,2,1.99e+01
"1/0364465341.31812",2014-11-19T08:22:25.386,13814,448.00,79.48,79.35,"04:28:52",175.03,-0.210,1.110,100.90,1.96e+02,2,,4.76e+02,1.87e+00,2,1.91e+01
"1/0364465349.01862",2014-11-19T08:22:32.929,13814,445.00,79.03,78.90,"07:07:07",174.34,-0.200,1.110,100.53,2.07e+02,2,,5.31e+02,1.93e+00,2,1.85e+01
"1/0364465356.37513",2014-11-19T08:22:40.473,13814,441.00,78.58,78.45,"09:31:38",173.71,-0.200,1.110,100.15,2.15e+02,2,,5.73e+02,1.92e+00,2,1.86e+01
"1/0364465364.07563",2014-11-19T08:22:48.016,13814,438.00,78.13,77.99,"11:44:40",173.13,-0.190,1.110,99.78,2.09e+02,2,,5.42e+02,1.86e+00,2,1.92e+01
"1/0364465371.43149",2014-11-19T08:22:55.559,13814,435.00,77.68,77.53,"13:46:16",172.60,-0.180,1.110,99.40,2.24e+02,2,,6.22e+02,1.69e+00,2,2.11e+01
"1/0364465379.13199",2014-11-19T08:23:03.102,13814,432.00,77.23,77.07,"15:40:59",172.10,-0.170,1.110,99.02,2.64e+02,2,,8.64e+02,1.73e+00,2,2.06e+01
"1/0364465386.48785",2014-11-19T08:23:10.645,13814,429.00,76.77,76.61,"17:28:49",171.63,-0.170,1.110,98.64,2.41e+02,2,,7.20e+02,1.63e+00,2,2.19e+01
"1/0364465394.18901",2014-11-19T08:23:18.189,13814,426.00,76.31,76.15,"19:07:29",171.20,-0.160,1.110,98.26,2.45e+02,2,,7.44e+02,1.52e+00,2,2.34e+01
"1/0364465401.54487",2014-11-19T08:23:25.732,13814,423.00,75.85,75.69,"20:39:17",170.80,-0.150,1.110,97.88,2.65e+02,2,,8.71e+02,1.46e+00,3,2.44e+01
"1/0364465409.24537",2014-11-19T08:23:33.275,13814,421.00,75.39,75.22,"22:06:30",170.42,-0.140,1.110,97.50,2.85e+02,2,,1.01e+03,1.46e+00,2,2.44e+01
"1/0364465416.60123",2014-11-19T08:23:40.818,13814,418.00,74.93,74.75,"23:26:50",170.07,-0.140,1.110,97.12,2.80e+02,2,,9.72e+02,1.44e+00,2,2.48e+01
"1/0364465424.30173",2014-11-19T08:23:48.361,13814,416.00,74.47,74.28,"00:42:35",169.74,-0.130,1.110,96.74,2.82e+02,2,,9.86e+02,1.38e+00,3,2.59e+01
"1/0364465432.00289",2014-11-19T08:23:55.905,13814,413.00,74.00,73.81,"01:53:45",169.43,-0.120,1.110,96.36,3.04e+02,2,,1.15e+03,1.33e+00,3,2.69e+01
"1/0364465439.35875",2014-11-19T08:24:03.448,13814,411.00,73.53,73.34,"03:02:38",169.13,-0.110,1.110,95.97,3.25e+02,2,,1.31e+03,1.21e+00,3,2.96e+01
"1/0364465447.05925",2014-11-19T08:24:10.991,13814,409.00,73.07,72.87,"04:04:38",168.86,-0.110,1.110,95.59,3.19e+02,2,,1.26e+03,1.22e+00,3,2.93e+01
"1/0364465454.41511",2014-11-19T08:24:18.534,13814,406.00,72.60,72.40,"05:04:21",168.60,-0.100,1.110,95.20,3.23e+02,2,,1.29e+03,1.25e+00,2,2.86e+01
"1/0364465462.11561",2014-11-19T08:24:26.077,13814,404.00,72.13,71.93,"06:01:46",168.35,-0.090,1.110,94.82,3.13e+02,2,,1.21e+03,1.25e+00,2,2.85e+01
"1/0364465469.47212",2014-11-19T08:24:33.621,13814,402.00,71.66,71.45,"06:54:36",168.12,-0.080,1.110,94.43,3.17e+02,2,,1.25e+03,1.28e+00,3,2.78e+01
"1/0364465477.17262",2014-11-19T08:24:41.164,13814,401.00,71.19,70.98,"07:45:08",167.90,-0.070,1.110,94.05,3.18e+02,2,,1.25e+03,1.29e+00,3,2.77e+01
"1/0364465484.52848",2014-11-19T08:24:48.707,13814,399.00,70.72,70.50,"08:33:23",167.69,-0.070,1.110,93.66,3.30e+02,2,,1.35e+03,1.28e+00,3,2.79e+01
"1/0364465492.22898",2014-11-19T08:24:56.250,13814,397.00,70.25,70.02,"09:19:21",167.49,-0.060,1.110,93.27,3.16e+02,2,,1.24e+03,1.33e+00,3,2.69e+01